[[{"header":{"parameterUnit":"m.s-1","parameterCategory":1,"la1":30.2991,"la2":30.254,"lo1":-89.0895,"lo2":-89.0444,"dy":0.0017,"dx":0.0017,"nx":28,"ny":28,"refTime":"2023-08-12T21:00:00:Z","depth":0,"parameterNumber":2,"parameterNumberName":"U-component_of_WINDS"},"data":[0,0,0,0,0,0,0,0,0,0,0,0,0,0,0,0,0,0,0,0,0,0,0,0,0,0,0,0,0,0,0,0,0,0,0,0,0,0,0,0,0,0,0,0,0,0,0,0,0,0,0,0,0,0,0,0,0,0,2.981,2.9811,0,2.9822,2.9822,2.9822,2.9794,2.9794,2.9793,2.9792,2.9804,2.9805,2.9806,0,0,0,0,0,0,0,0,0,0,0,0,0,2.9767,2.9767,2.981,2.9811,2.9811,2.9822,2.9822,2.9822,2.9795,2.9793,2.9792,2.9791,2.9803,2.9805,2.9806,0,0,0,0,0,0,0,0,0,0,0,0,0,2.9782,2.9768,2.981,2.9798,2.9797,2.9822,2.9822,2.9822,2.9795,2.9793,2.9792,2.9791,2.9803,2.9805,2.9806,2.9843,0,0,2.9811,2.9812,0,0,0,0,0,0,0,0,2.9782,2.9784,2.98,2.9799,2.9798,2.9805,2.9811,2.9829,2.9795,2.9796,2.9792,2.979,2.9805,2.9807,2.9812,2.9843,2.9844,2.9812,2.9813,2.9813,2.9814,0,0,0,0,0,0,0,2.9781,2.9783,2.9815,2.98,2.9799,2.9793,2.9794,2.9814,2.9808,2.9796,2.9794,2.9795,2.9805,2.981,2.9812,2.9844,2.9812,2.9813,2.9814,2.9815,2.9907,2.9909,0,0,0,0,0,0,2.9781,2.9783,2.9814,2.9815,2.9786,2.9795,2.9796,2.9804,2.9807,2.9807,2.9796,2.9794,2.9808,2.981,2.9812,2.9856,2.9813,2.9815,2.9816,2.9906,2.9907,2.9909,0,0,0,0,0,0,2.978,2.9784,2.9814,2.9798,2.9802,2.9797,2.9807,2.9805,2.9811,2.9808,2.9807,2.9803,2.9807,2.981,2.9836,2.9856,2.9816,2.9817,2.9904,2.9906,2.9908,2.9943,0,0,0,0,0,0,2.9779,2.9784,2.9797,2.9799,2.9803,2.9837,2.9808,2.9806,2.9814,2.9811,2.9814,2.9813,2.9806,2.9833,2.9837,2.9857,2.9819,2.9902,2.9905,2.9908,2.994,2.9946,2.9951,0,0,0,0,0,2.9777,2.9806,2.9798,2.9802,2.9819,2.9838,2.984,2.9831,2.9815,2.9829,2.9828,2.9813,2.9853,2.9836,2.984,2.9861,2.9901,2.9904,2.9907,2.9937,2.9944,2.9951,0,0,0,0,0,0,2.9807,2.9806,2.9797,2.9827,2.9833,2.9833,2.985,2.9839,2.985,2.9846,2.9835,2.9836,2.9864,2.9865,2.9846,2.9897,2.9874,2.9879,2.9895,2.9902,2.9908,2.9907,2.982,0,0,0,0,0,2.9817,2.9832,2.9831,2.9858,2.9861,2.9855,2.9863,2.9856,2.9861,2.9864,2.9864,2.987,2.9884,2.9893,2.9906,2.994,2.9941,2.9956,2.9962,2.9967,2.997,2.9989,2.9997,2.992,2.992,2.992,0,0,2.9838,2.9839,2.985,2.9864,2.9867,2.9883,2.9857,2.9876,2.9888,2.9866,2.9891,2.9891,2.9897,2.9928,2.9941,2.993,2.9992,2.9971,2.9974,2.9976,2.9993,3.0001,3.0007,2.9922,2.9922,2.9921,0,0,2.9884,2.9887,2.991,2.9914,2.992,2.9916,2.9922,2.9924,2.9924,2.9948,2.9933,2.9947,2.9971,2.9976,2.9982,3.0032,3.0019,3.0036,3.0066,3.0084,3.009,3.0095,3.0114,3.012,3.004,3.004,3.004,0,2.9909,2.9933,2.9923,2.9943,2.995,2.9931,2.9955,2.9959,2.9969,2.9975,2.9962,2.9992,2.9995,3.0026,3.0039,3.0044,3.005,3.0036,3.009,3.0095,3.01,3.0117,3.0124,3.0042,3.0042,3.0042,3.0042,0,2.9964,2.9981,2.9999,3.0009,3.0018,3.004,3.0033,3.0044,3.0036,3.0034,3.0059,3.0062,3.0075,3.0082,3.0075,3.0114,3.0106,3.0092,3.0069,3.011,3.0126,3.0132,3.0045,3.0045,3.0044,3.0043,0,0,3.0029,3.0034,3.0041,3.0045,3.0051,3.0064,3.0085,3.0098,3.0107,3.0115,3.0133,3.0154,3.0141,3.0148,3.0141,3.0157,3.0197,3.0141,3.0141,3.0151,3.0241,3.0251,3.0259,3.0189,3.019,3.0191,3.024,0,3.0075,3.0111,3.0103,3.0139,3.0155,3.0138,3.0156,3.0162,3.0161,3.0175,3.0173,3.0189,3.017,3.0174,3.019,3.0189,3.0215,3.0185,3.0206,3.0207,3.0205,3.0267,3.0279,3.0325,3.0246,3.0247,3.0248,0,3.0134,3.0144,3.0181,3.0185,3.0191,3.0208,3.022,3.0233,3.0239,3.0237,3.0245,3.0235,3.0257,3.0234,3.0264,3.0244,3.0252,3.0253,3.0254,3.0256,3.023,3.0271,3.0339,3.0346,3.0258,3.0257,3.0256,0,3.0178,3.0201,3.0226,3.0231,3.0236,3.0248,3.0251,3.0256,3.0265,3.0275,3.0281,3.0293,3.03,3.0311,3.0305,3.0289,3.0336,3.0312,3.0336,3.0336,3.0346,3.0346,3.0417,3.0351,3.0351,3.0351,3.0351,0,3.023,3.0254,3.0246,3.0262,3.0288,3.0279,3.0305,3.0306,3.0311,3.0327,3.0313,3.0329,3.032,3.0335,3.033,3.0356,3.0359,3.0359,3.0357,3.036,3.036,3.0365,3.0362,3.0353,3.0352,3.0352,3.0352,0,3.0284,3.0279,3.0306,3.0309,3.031,3.033,3.0332,3.0347,3.0345,3.0366,3.037,3.0367,3.0384,3.0379,3.0397,3.0394,3.0427,3.0422,3.0425,3.0424,3.0447,3.0445,3.0524,3.0534,3.0462,3.0463,3.0464,0,3.0318,3.0335,3.034,3.035,3.0354,3.037,3.0378,3.0371,3.0381,3.039,3.0404,3.0419,3.0432,3.0459,3.0459,3.0473,3.0468,3.0495,3.047,3.0472,3.0469,3.0468,3.047,3.05,3.05,3.0501,3.0502,0,3.0378,3.0376,3.0389,3.0402,3.0413,3.0422,3.0431,3.044,3.0433,3.0445,3.0462,3.0471,3.049,3.0506,3.0519,3.0522,3.0511,3.051,3.0516,3.0519,3.052,3.052,3.0439,3.0508,3.0507,3.0507,3.0506,3.0506,3.0423,3.0439,3.0445,3.046,3.0466,3.0474,3.0489,3.0489,3.0503,3.0518,3.0512,3.0532,3.0539,3.0555,3.056,3.0576,3.0566,3.0575,3.0577,3.0579,3.0582,3.0518,3.0578,3.0578,3.0578,3.0578,3.0578,0,3.0484,3.0487,3.0501,3.0514,3.0526,3.0515,3.0524,3.0535,3.0553,3.056,3.0572,3.0592,3.0608,3.0609,3.0624,3.0636,3.0632,3.064,3.0639,3.064,3.059,3.0584,3.0644,3.0644,3.0644,3.0644,3.0644,3.0644,3.0516,3.0542,3.054,3.0569,3.0572,3.0591,3.0597,3.0605,3.0611,3.0634,3.0647,3.0648,3.0653,3.0668,3.0682,3.0682,3.0688,3.0699,3.0697,3.065,3.0644,3.0638,3.0631,3.0701,3.0701,3.0746,3.0746,3.0747]},{"header":{"parameterUnit":"m.s-1","parameterCategory":1,"la1":30.2991,"la2":30.254,"lo1":-89.0895,"lo2":-89.0444,"dy":0.0017,"dx":0.0017,"nx":28,"ny":28,"refTime":"2023-08-12T21:00:00:Z","depth":0,"parameterNumber":3,"parameterNumberName":"V-component_of_WINDS"},"data":[0,0,0,0,0,0,0,0,0,0,0,0,0,0,0,0,0,0,0,0,0,0,0,0,0,0,0,0,0,0,0,0,0,0,0,0,0,0,0,0,0,0,0,0,0,0,0,0,0,0,0,0,0,0,0,0,0,0,0.2631,0.2631,0,0.2655,0.2655,0.2655,0.2665,0.2665,0.2665,0.2665,0.2689,0.269,0.2691,0,0,0,0,0,0,0,0,0,0,0,0,0,0.2594,0.2595,0.2631,0.2631,0.2632,0.2655,0.2655,0.2655,0.2665,0.2665,0.2665,0.2665,0.2689,0.269,0.2691,0,0,0,0,0,0,0,0,0,0,0,0,0,0.2613,0.2595,0.2631,0.2639,0.264,0.2654,0.2655,0.2655,0.2665,0.2665,0.2665,0.2665,0.2689,0.269,0.2691,0.2698,0,0,0.2694,0.2694,0,0,0,0,0,0,0,0,0.2612,0.2614,0.2638,0.2639,0.264,0.2657,0.2651,0.267,0.2665,0.2656,0.2665,0.2665,0.2679,0.268,0.2685,0.2699,0.27,0.2694,0.2695,0.2695,0.2695,0,0,0,0,0,0,0,0.2611,0.2614,0.264,0.2638,0.264,0.2642,0.2644,0.2654,0.2667,0.2657,0.2657,0.266,0.2679,0.2684,0.2686,0.2701,0.2694,0.2695,0.2695,0.2696,0.2721,0.2721,0,0,0,0,0,0,0.2608,0.2612,0.264,0.2641,0.2626,0.2642,0.2645,0.2652,0.2667,0.267,0.266,0.2661,0.2682,0.2684,0.2686,0.2695,0.2695,0.2696,0.2697,0.2721,0.2721,0.2721,0,0,0,0,0,0,0.2607,0.261,0.2639,0.2627,0.2631,0.2643,0.265,0.2652,0.2657,0.267,0.2672,0.2663,0.2682,0.2685,0.2695,0.2696,0.2696,0.2697,0.2721,0.2721,0.2721,0.2714,0,0,0,0,0,0,0.2606,0.261,0.2613,0.2627,0.2631,0.2647,0.265,0.2653,0.2659,0.2659,0.2673,0.2675,0.2682,0.2693,0.2696,0.2698,0.2698,0.2721,0.2721,0.2721,0.2714,0.2713,0.2713,0,0,0,0,0,0.2605,0.2611,0.2613,0.2617,0.2636,0.2647,0.265,0.2658,0.2659,0.2662,0.267,0.2675,0.2696,0.2694,0.2697,0.2699,0.2721,0.2721,0.2721,0.2714,0.2713,0.2713,0,0,0,0,0,0,0.2597,0.2613,0.2616,0.2627,0.2635,0.2649,0.2653,0.2657,0.2666,0.2667,0.2677,0.268,0.2688,0.2695,0.2693,0.2707,0.2708,0.2709,0.2702,0.2702,0.2701,0.27,0.2699,0,0,0,0,0,0.2597,0.2605,0.2618,0.2626,0.263,0.2641,0.2646,0.2652,0.2661,0.2665,0.2674,0.2683,0.2692,0.2697,0.2706,0.2715,0.2717,0.2717,0.2717,0.2717,0.2717,0.2721,0.2721,0.2721,0.2721,0.2721,0,0,0.2596,0.2606,0.261,0.2625,0.2632,0.264,0.2644,0.2652,0.2658,0.2666,0.2676,0.2683,0.2693,0.2702,0.2707,0.2708,0.2718,0.2717,0.2717,0.2717,0.2721,0.2721,0.2721,0.2721,0.2721,0.2721,0,0,0.2599,0.2607,0.2614,0.2621,0.2632,0.2639,0.264,0.2653,0.2658,0.2667,0.2673,0.268,0.2695,0.2702,0.2707,0.2711,0.2715,0.2713,0.2712,0.2715,0.2715,0.2715,0.2716,0.2716,0.2714,0.2714,0.2714,0,0.2596,0.2609,0.2617,0.2625,0.263,0.2638,0.2644,0.2651,0.2664,0.2668,0.2669,0.2687,0.2695,0.2705,0.2706,0.271,0.2712,0.2712,0.2715,0.2715,0.2715,0.2716,0.2716,0.2713,0.2713,0.2714,0.2714,0,0.2605,0.2613,0.2617,0.2629,0.2636,0.2643,0.2652,0.2657,0.2661,0.2668,0.2677,0.2686,0.2696,0.2699,0.2704,0.271,0.271,0.2713,0.2715,0.2714,0.2715,0.2715,0.2713,0.2713,0.2713,0.2713,0,0,0.2604,0.262,0.2621,0.2626,0.2638,0.2645,0.2652,0.2661,0.2665,0.2674,0.2679,0.2691,0.2693,0.2699,0.2705,0.2708,0.2709,0.271,0.2711,0.2709,0.2715,0.2712,0.2712,0.2712,0.2712,0.2712,0.2714,0,0.2608,0.2621,0.2628,0.2638,0.2645,0.2651,0.2657,0.2665,0.2671,0.2677,0.2684,0.2691,0.2694,0.2698,0.2701,0.2708,0.271,0.2708,0.2717,0.2717,0.2714,0.2713,0.2711,0.2712,0.2714,0.2714,0.2714,0,0.2614,0.2622,0.2633,0.2643,0.2646,0.2651,0.266,0.2666,0.2674,0.2678,0.2684,0.269,0.2697,0.2698,0.2707,0.2705,0.2709,0.2713,0.2713,0.2714,0.2715,0.2713,0.2712,0.2712,0.2715,0.2715,0.2715,0,0.2612,0.2625,0.2633,0.2637,0.2649,0.2652,0.2658,0.2666,0.2671,0.2678,0.2681,0.2689,0.2694,0.27,0.2707,0.2707,0.2715,0.2717,0.2718,0.2718,0.2719,0.2719,0.2718,0.2722,0.2722,0.2722,0.2722,0,0.2615,0.2621,0.2632,0.2636,0.2643,0.265,0.2656,0.2662,0.2669,0.2675,0.2681,0.2686,0.2695,0.27,0.2706,0.2712,0.2714,0.2717,0.2718,0.2716,0.2716,0.2719,0.2719,0.2722,0.2722,0.2722,0.2722,0,0.2614,0.2621,0.263,0.264,0.2643,0.2647,0.2656,0.266,0.2666,0.2672,0.2674,0.2683,0.269,0.2698,0.2707,0.2711,0.2717,0.2719,0.2714,0.2714,0.2715,0.2714,0.2716,0.2716,0.272,0.272,0.272,0,0.2616,0.262,0.2631,0.2634,0.2639,0.2646,0.265,0.2658,0.2662,0.2671,0.2674,0.2682,0.2688,0.2699,0.2706,0.2713,0.2715,0.2715,0.2716,0.2714,0.2714,0.2714,0.2714,0.2715,0.2715,0.2715,0.2714,0,0.2617,0.262,0.2627,0.2634,0.2639,0.2646,0.2652,0.2655,0.2663,0.2668,0.2675,0.268,0.2689,0.2696,0.2704,0.2709,0.2713,0.2714,0.2714,0.2712,0.2709,0.271,0.2712,0.2714,0.2714,0.2714,0.2714,0.2714,0.2617,0.2621,0.2629,0.2635,0.2641,0.2646,0.265,0.2656,0.2662,0.267,0.2674,0.2681,0.2688,0.2698,0.2703,0.2708,0.2709,0.271,0.271,0.271,0.271,0.2708,0.271,0.271,0.271,0.271,0.271,0,0.2619,0.2624,0.263,0.2638,0.2643,0.2646,0.2653,0.2657,0.2662,0.2669,0.2674,0.2682,0.2688,0.2695,0.2702,0.2704,0.2706,0.2706,0.2706,0.2707,0.2708,0.2707,0.2704,0.2704,0.2704,0.2704,0.2704,0.2704,0.262,0.2626,0.263,0.2639,0.2643,0.265,0.2653,0.2658,0.2663,0.2671,0.2676,0.2681,0.2687,0.2694,0.2699,0.2701,0.2703,0.2702,0.2705,0.2706,0.2707,0.2707,0.2706,0.2703,0.2703,0.2702,0.2702,0.2702]}]]